sat.trackr.live / text

‹ back to catalog

STARLINK-31704

NORAD 59586 · 2024-076Y

PAYLOAD ACTIVE UNKNOWN

§ Identity

Operator
Country
US
Launch date
2024-04-23
Launch site
AFETR
Launch vehicle
Mass (kg)
RCS (m²)

Purposes: comms

External: N2YO · Heavens-Above · Gunter

§ Orbital elements

Epoch: 2026-05-24T16:52:54.516864Z

Period
93.28 min
Inclination
42.9913°
Eccentricity
0.0018027
Mean motion
15.43682795 rev/d
Perigee alt
423.0 km
Apogee alt
447.5 km
Semi-major
6,813.4 km
B*
1.6641e-3
RAAN
248.5642°
Arg perigee
2.9406°
Mean anomaly
357.1555°
Rev number
11,870

§ Raw data

STARLINK-317041 59586U 24076Y   26144.70340876  .00077736  00000+0  16641-2 0  99932 59586  42.9913 248.5642 0018027   2.9406 357.1555 15.43682795118701

JSON: /api/v1/satellites/59586 · /tle

For live sub-satellite position, see the globe view (requires WebGL).

§ Visibility from observer

Set your observer location to see the next 7 days of passes ≥ 10°. The values pass through the URL so the page stays shareable.

No JS? Fill the form by hand. The geolocation button needs JavaScript.